リニア彗星

C/2002 A3 ( LINEAR )

English version
Home page
Updated on April 3, 2004

---------------------------------------------------------------------

・ プロフィール

発見日 2002年1月13日
発見光度 17.6等
発見者 Lincoln Laboratory Near-Earth Asteroid Research project

・ 軌道要素

Epoch 2002 May 6.0 TT = JDT 2452400.5
T 2002 Apr. 24.41249 TT                                 MPC
q   5.1514356            (2000.0)            P               Q
z  -0.0015316      Peri.  329.48160     -0.39190846     -0.76478577
 +/-0.0000052      Node   136.55090     +0.91991599     -0.31805863
e   1.0078900      Incl.   48.03897     -0.01274092     +0.56030477
>From 157 observations 2002 Jan. 13-Dec. 30, mean residual 0".64.

・ 星図

・ 光度変化

        m1 = 0.4 + 5 logΔ + 18.5 log r

---------------------------------------------------------------------

軌道要素はM.P.E.C. 2003-A29に掲載されたものです。
星図は StellaNavigator Ver.2.0 for Windows (アストロアーツ 編著 / アスキー出版局刊) で作成したものです。
光度グラフはComet for Windowsで作成したものです。

---------------------------------------------------------------------

Copyright(C) Seiichi Yoshida (comet@aerith.net). All rights reserved.